Location: Ca��n la Puerta
(32.5440°N, 116.6804°W)
Time: 00:53:35
(UTC+00:00)

PSLV R/B - Pass Details

Date: 15 June 2021
Orbit: 594 x 628 km, 98.0° (Epoch: 02 August)

Event Time Altitude Azimuth Distance (km) Brightness Sun altitude
Rises 12:03:29 0° 8° (N) 2,905 7.7 -7.2°
Reaches altitude 10° 12:05:42 10° 5° (N) 1,999 6.8 -6.8°
Maximum altitude 12:10:00 65° 285° (WNW) 689 3.7 -6.1°
Drops below altitude 10° 12:14:19 10° 203° (SSW) 1,996 5.7 -5.3°
Sets 12:16:30 0° 200° (SSW) 2,899 6.5 -4.9°
